sat.trackr.live / text

‹ back to catalog

UNKNOWN

NORAD 82683

UNKNOWN UNKNOWN UNKNOWN

§ Identity

Operator
Country
Launch date
Launch site
Launch vehicle
Mass (kg)
RCS (m²)

External: N2YO · Heavens-Above

§ Orbital elements

Epoch: 2026-05-23T22:11:07.265760Z

Period
101.37 min
Inclination
98.1505°
Eccentricity
0.0208071
Mean motion
14.20552396 rev/d
Perigee alt
673.6 km
Apogee alt
973.3 km
Semi-major
7,201.6 km
B*
2.5639e-4
RAAN
205.5686°
Arg perigee
280.7774°
Mean anomaly
77.0045°
Rev number
48,529

§ Raw data

UNKNOWN1 82683U          26143.92438965  .00000641  00000+0  25639-3 0  99972 82683  98.1505 205.5686 0208071 280.7774  77.0045 14.20552396485290

JSON: /api/v1/satellites/82683 · /tle

For live sub-satellite position, see the globe view (requires WebGL).

§ Visibility from observer

Set your observer location to see the next 7 days of passes ≥ 10°. The values pass through the URL so the page stays shareable.

No JS? Fill the form by hand. The geolocation button needs JavaScript.